Other Public Products
Issued by NWS Grand Forks, ND

Home | Current Version | Previous Version | Graphics & Text | Print | Product List | Glossary On
Versions: 1 2 3 4 5 6 7 8 9 10 11 12 13 14 15 16 17 18 19 20 21 22 23 24 25 26 27 28 29 30 31 32 33 34 35 36 37 38 39 40 41 42 43 44 45 46 47 48 49 50
000
FPUS83 KFGF 262010
OPUFGF
PRAIRIE TO PINES WEATHER ROUNDUP
NATIONAL WEATHER SERVICE EASTERN NORTH DAKOTA/GRAND FORKS ND
300 PM CDT MON JUN 26 2017

 **SATELLITE DATA USED TO AUGMENT SKY COVER AT AUTOMATED STATIONS**
 *****  WEATHER ACROSS EASTERN NORTH DAKOTA  *****

CITY           SKY/WX    TMP DP  RH WIND       PRES   REMARKS
GRAND FORKS    FAIR      74  40  29 VRB7G17   30.14F
GRAND FORKS AF FAIR      73  42  31 NW10      30.15F
GRAND CITY NWS NOT AVBL
BUXTON         NOT AVBL
DEVILS LAKE    FAIR      69  39  33 VRB6G16   30.19F
FARGO          PTSUNNY   74  37  26 W7G16     30.16F
WAHPETON ARPT  MOCLDY    70  34  26 W5        30.19F
$$

 *****  WEATHER ACROSS CENTRAL AND WESTERN NORTH DAKOTA  *****

CITY           SKY/WX    TMP DP  RH WIND       PRES   REMARKS
JAMESTOWN      FAIR      70  39  32 NW8       30.18F
BISMARCK       FAIR      74  43  32 S8        30.17F
MINOT          FAIR      73  39  29 S8        30.13F
MINOT AFB      FAIR      72  41  32 SW12      30.12F
GARRISON         N/A     71  41  33 VRB6      30.14F
WILLISTON      FAIR      82  42  24 SE13      30.07F
DICKINSON      FAIR      76  33  21 S10G20    30.11F
HETTINGER      FAIR      77  37  23 S6G16     30.15F
$$

 *****  OTHER OBSERVATIONS NORTHEAST NORTH DAKOTA  *****

CITY           SKY/WX    TMP DP  RH WIND       PRES   REMARKS
WALHALLA       NOT AVBL
LANGDON        FAIR      70  41  35 NW6G13    30.17F
CAVALIER       FAIR      72  39  30 W10       30.13F
GRAFTON        FAIR      73  41  31 W9G16     30.15F
CANDO          NOT AVBL
FORT TOTTEN      N/A     70  43  37 NE5       29.95S
ROLLA            N/A     66  41  39 S8        30.17F
RUGBY          NOT AVBL
 ***** THE ABOVE OBSERVATIONS ARE NON NWS ARE NOT QUALITY
        CONTROLLED AND MAY MIS-REPORT RAIN FOR SNOW...
$$

 *****  OTHER OBSERVATIONS SOUTHEAST NORTH DAKOTA *****

CITY           SKY/WX    TMP DP  RH WIND       PRES   REMARKS
COOPERSTOWN    FAIR      70  37  30 W10       30.19F
VALLEY CITY    FAIR      70  37  30 W9G16     30.20F
OAKES          NOT AVBL
GWINNER        CLOUDY    70  37  30 CALM      30.19F
SHEYENNE NWR     N/A     73  39  28 N6        29.95S
BUFFALO        NOT AVBL
WYNDMERE       NOT AVBL
 ***** THE ABOVE OBSERVATIONS ARE NON NWS ARE NOT QUALITY
       CONTROLLED AND MAY MIS-REPORT RAIN FOR SNOW...
$$

  *****  WEATHER ACROSS NORTHERN MINNESOTA  *****

CITY           SKY/WX    TMP DP  RH WIND       PRES   REMARKS
FLAG ISLAND    FAIR      66  45  45 NW10      30.07F
WARROAD        FAIR      68  48  49 W8        30.10F
ROSEAU         FAIR      70  46  43 W16       30.11S
HALLOCK        PTSUNNY   72  37  28 NW8G16    30.12F
THF RVR FALLS  PTSUNNY   69  39  33 NW15      30.15F
HALSTAD        NOT AVBL
FOSSTON        PTSUNNY   68  43  40 W14G21    30.16F
BAUDETTE       PTSUNNY   66  46  48 NW10G18   30.09F
WASKISH        CLOUDY    66  46  48 W10G16    30.11F
CROOKSTON      FAIR      72  39  30 NW10G18   30.15F
$$
  *****  WEATHER ACROSS CENTRAL AND WEST MINNESOTA  *****

CITY           SKY/WX    TMP DP  RH WIND       PRES   REMARKS
BEMIDJI        FAIR      67  38  34 NW13      30.14F
PARK RAPIDS    FAIR      71  39  31 NW10      30.15F
WADENA         FAIR      68  43  40 NW7       30.16F
DETROIT LAKES  FAIR      68  39  34 NW6       30.18F
MOORHEAD       FAIR      70  36  28 NW7       30.17F
FERGUS FALLS   FAIR      68  41  37 N6        30.16F
ELBOW LAKE     FAIR      67  44  43 NW9       30.19F
MORRIS MN      FAIR      72  43  35 N5        30.18F
STAPLES        FAIR      70  39  32 NW13      30.16F
WHEATON        FAIR      68  41  37 N8        30.21F
$$
  *****  WEATHER ELSEWHERE ACROSS MINNESOTA  *****

CITY           SKY/WX    TMP DP  RH WIND       PRES   REMARKS
DULUTH         FAIR      64  44  48 NW12      30.08F
INTRNTL FALLS  PTSUNNY   67  44  43 NW14G23   30.06F
ELY            LGT RAIN  63  39  42 N9G18     30.05F
CLOQUET        FAIR      68  37  32 NW13G22   30.08F
BRAINERD       FAIR      68  40  35 NW10      30.15F
HIBBING        PTSUNNY   61  46  57 E10       30.09S
ALEXANDRIA     FAIR      67  41  38 N12       30.19F
SAINT CLOUD    FAIR      70  42  36 N8G18     30.14F
MINNEAPOLIS    PTSUNNY   69  42  37 VRB6G16   30.14F
$$

  *****  WEATHER ACROSS SOUTH DAKOTA  *****

CITY           SKY/WX    TMP DP  RH WIND       PRES   REMARKS
SIOUX FALLS    FAIR      70  47  43 N9        30.19F
BROOKINGS      FAIR      66  39  37 VRB6      30.20F
WATERTOWN      FAIR      66  39  37 VRB5      30.20F
HURON          FAIR      70  37  29 SE7       30.19F
SISSETON         N/A     72  38  29 N9        30.19F
ABERDEEN       FAIR      69  36  29 VRB7G16   30.20F
MITCHELL       FAIR      72  36  26 NE7       30.19F
PIERRE         FAIR      72  41  32 SE7       30.17F
MOBRIDGE       FAIR      74  39  28 SW8       30.16F
RAPID CITY     FAIR      76  38  25 SE13G22   30.16F
$$

  *****  SOME WEATHER IN NEARBY STATES *****

CITY           SKY/WX    TMP DP  RH WIND       PRES   REMARKS
GLASGOW MT     FAIR      86  33  15 SE20G26   29.95
GREAT FALLS MT FAIR      92  42  17 SW15G24   29.86F
CHEYENNE WY    FAIR      80  39  23 MISG      30.24F
SCOTTSBLUFF NE FAIR      82  42  24 VRB3      30.16F
OMAHA NE       PTSUNNY   76  54  46 NE14G22   30.13F
DES MOINES IA  FAIR      73  54  51 VRB3      30.13F
DAVENPORT IA   FAIR      71  50  47 W17       30.10F
CHICAGO IL     PTSUNNY   72  39  30 W23G33    30.04F
EAU CLAIRE WI  FAIR      68  41  37 N8G21     30.10F
LA CROSSE WI   PTSUNNY   71  45  39 NW13      30.11F
$$

  *****  SOME NATIONAL WEATHER *****

CITY           SKY/WX    TMP DP  RH WIND       PRES   REMARKS
LA GUARDIA NY  FAIR      78  50  37 S15G26    29.98S
RALEIGH NC     FAIR      84  53  34 W7        30.07F
ATLANTA GA     FAIR      85  53  33 N12       30.11F
NEW ORLEANS LA FAIR      87  68  52 NE9       30.05F HX  90
OKLAHOMA CITY  FAIR      84  56  38 SW6       30.11F
ALBUQUERQUE NM FAIR      83  46  27 SW14G21   30.22F
SALT LAKE CITY PTSUNNY   95  36  12 SW8       30.01F HX  90
LOS ANGELES CA FAIR      81  61  50 W15       29.93S
BOISE ID       FAIR      93  49  22 N6        29.86F HX  90
SEATTLE WA     PTSUNNY   66  55  67 W8        29.96F
$$

*** WEATHER ACROSS MANITOBA...SASKATCHEWAN AND ONTARIO ***
                ***ONTARIO***

CITY           SKY/WX    TMP DP  RH WIND       PRES   REMARKS
GERALDTON      LGT RAIN  54  50  87 NW16G23   29.95R
THUNDER BAY    PTSUNNY   64  50  59 W7        29.98F
SIOUX LOOKOUT  CLOUDY    61  48  63 NW3       30.03F
TORONTO        LGT RAIN  61  54  77 NE10      29.93R
BIG TROUT LK   LGT RAIN  59  45  58 W8        29.92S
PICKLE LAKE    PTSUNNY   63  39  42 NW9       29.97F
DRYDEN         CLOUDY    64  45  48 NW6       30.04F
KENORA         PTSUNNY   66  45  45 NW9       30.07F
$$
                *** MANITOBA***

CITY           SKY/WX    TMP DP  RH WIND       PRES   REMARKS
BRANDON        MOSUNNY   72  41  33 SW5       30.12F
DAUPHIN        SUNNY     72  46  40 W9        30.08F
ISLAND LAKE    PTSUNNY   72  46  40 W8        29.92F
PILOT MOUND      N/A     66  39  37 W6          N/A
THE PAS        MOSUNNY   73  39  29 SW10G18   29.99F
THOMPSON       MOSUNNY   77  37  24 W18G30    29.85F
WINNIPEG       MOSUNNY   72  45  37 NW16G22   30.11F
LYNN LAKE      SUNNY     77  37  24 W10G23    29.87F
CHURCHILL      PTSUNNY   57  54  88 SW7       29.72F
GILLAM         PTSUNNY   72  50  46 SW7       29.78F
$$
                ***SASKATCHEWAN***

CITY           SKY/WX    TMP DP  RH WIND       PRES   REMARKS
ESTEVAN        PTSUNNY   73  43  33 S12G20    30.08F
KINDERSLEY     NOT AVBL
LLOYDMINSTER   CLOUDY    73  52  46 SE24G32   29.78F
PRINCE ALBERT  PTSUNNY   72  37  28 S15       29.98F
REGINA         MOSUNNY   75  46  35 SE16G24   30.01F
YORKTON        SUNNY     70  39  32 S9G21     30.08F



USA.gov is the U.S. government's official web portal to all federal, state and local government web resources and services.